Location: Lake Almanor
(40.2485°N, 121.1442°W)
Time: 08:24:45
(UTC-08:00)

STARLINK-1086 - Pass Details

Date: 31 January 2020
Orbit: 349 x 351 km, 53.0° (Epoch: 18 February)

Event Time Altitude Azimuth Distance (km) Brightness Sun altitude
Rises 19:43:52 0° 296° (WNW) 2,163 7.6 -27.3°
Reaches altitude 10° 19:46:12 10° 278° (W) 1,316 6.5 -27.7°
Enters shadow 19:46:51 14° 268° (W) 1,128 6.1 -27.9°
